CW1923 Weather Reports


Display with metric or nautical units.
time (UTC)temp
F
wind
direction
speed
MPH
gust
MPH
rain 1hr
in
rain 24hr
in
rain mn
in
humidity
%
barometer
mb
20260901103430 72 288 4.0 12.0 0.00 0.04 0.00 71 1020.7
20260901102432 72 255 2.0 5.0 0.00 0.04 0.00 73 1020.7
20260901101931 71 255 2.0 12.0 0.00 0.04 0.00 75 1020.8
20260901101441 70 250 2.0 12.0 0.00 0.04 0.00 77 1020.8
20260901100933 69 297 2.0 7.0 0.00 0.04 0.00 75 1020.7
20260901100432 69 287 4.0 11.0 0.00 0.04 0.00 75 1020.8
20260901095933 69 282 4.0 11.0 0.00 0.04 0.00 75 1020.8
20260901095430 70 271 2.0 12.0 0.00 0.04 0.00 77 1020.9
20260901094931 69 290 2.0 12.0 0.00 0.05 0.00 78 1020.9
20260901094431 68 261 0.0 5.0 0.00 0.09 0.00 80 1020.9
20260901093428 68 287 4.0 11.0 0.00 0.09 0.00 80 1020.9
20260901092927 68 297 4.0 11.0 0.00 0.09 0.00 81 1020.7
20260901092429 68 281 4.0 12.0 0.00 0.09 0.00 81 1020.7
20260901091928 69 298 4.0 12.0 0.00 0.09 0.00 81 1020.7
20260901090932 68 332 4.0 11.0 0.00 0.09 0.00 85 1020.8
20260901085927 66 284 4.0 11.0 0.00 0.09 0.00 87 1020.7
20260901085424 66 289 4.0 11.0 0.00 0.09 0.00 87 1020.7
20260901084926 66 323 4.0 11.0 0.00 0.09 0.00 88 1020.7
20260901083925 65 356 2.0 12.0 0.00 0.09 0.00 90 1020.7
20260901083424 64 284 4.0 12.0 0.00 0.09 0.00 90 1020.6
20260901082924 64 310 4.0 12.0 0.00 0.09 0.00 91 1020.5
20260901082416 64 293 4.0 14.0 0.00 0.09 0.00 91 1020.5
20260901081919 64 299 4.0 14.0 0.00 0.09 0.00 91 1020.4
20260901081417 64 288 4.0 12.0 0.00 0.09 0.00 91 1020.3
20260901080916 64 282 4.0 11.0 0.00 0.09 0.00 92 1020.3
20260901080419 64 276 4.0 11.0 0.00 0.09 0.00 92 1020.2
20260901075917 63 280 4.0 12.0 0.00 0.09 0.00 93 1020.2
20260901075414 63 313 4.0 12.0 0.00 0.09 0.00 93 1020.2
20260901074914 63 294 4.0 11.0 0.00 0.09 0.00 93 1020.2
20260901074415 63 280 5.0 11.0 0.00 0.09 0.00 93 1020.0
20260901073915 63 289 5.0 12.0 0.00 0.09 0.00 93 1020.0
20260901073410 63 291 4.0 12.0 0.00 0.09 0.00 94 1019.9
20260901072914 63 277 2.0 9.0 0.00 0.09 0.00 94 1019.9
20260901072415 63 289 2.0 7.0 0.00 0.09 0.00 94 1019.8
20260901071407 62 298 2.0 5.0 0.00 0.09 0.00 95 1019.7
20260901070907 62 306 2.0 12.0 0.00 0.09 0.00 95 1019.7
20260901070403 62 288 4.0 12.0 0.00 0.09 0.00 94 1019.6
20260901065905 62 289 5.0 12.0 0.00 0.09 0.00 95 1019.8
20260901065406 62 230 5.0 12.0 0.00 0.09 0.00 95 1019.8
20260901064904 62 294 4.0 14.0 0.00 0.09 0.00 95 1019.7
20260901063903 62 282 4.0 12.0 0.00 0.09 0.00 96 1019.6
20260901063356 62 295 4.0 12.0 0.00 0.09 0.00 96 1019.5
20260901062854 62 284 4.0 12.0 0.00 0.09 0.00 96 1019.5
20260901062353 62 287 2.0 7.0 0.00 0.09 0.00 96 1019.4
20260901061852 61 240 0.0 7.0 0.00 0.09 0.00 96 1019.3
20260901061353 61 202 0.0 5.0 0.00 0.09 0.00 96 1019.3
20260901060843 61 195 0.0 5.0 0.00 0.09 0.00 96 1019.3
20260901060339 61 251 0.0 4.0 0.00 0.09 0.00 96 1019.2
20260901055837 61 250 0.0 4.0 0.00 0.09 0.00 96 1019.2
20260901055338 61 250 0.0 4.0 0.00 0.09 0.00 96 1019.1
20260901054835 61 248 0.0 4.0 0.00 0.09 0.00 96 1019.1
20260901054336 61 244 0.0 5.0 0.00 0.09 0.00 96 1019.1
20260901053832 60 244 0.0 5.0 0.00 0.09 0.00 96 1019.1
20260901053335 60 243 0.0 2.0 0.00 0.09 0.00 96 1018.9
20260901052833 60 243 0.0 4.0 0.00 0.09 0.00 96 1019.1
20260901052333 60 243 0.0 4.0 0.00 0.09 0.00 96 1019.0
20260901051831 60 237 0.0 2.0 0.00 0.09 0.00 96 1019.0
20260901051329 60 237 0.0 4.0 0.00 0.09 0.00 96 1019.0
20260901050823 60 237 0.0 4.0 0.00 0.09 0.00 96 1018.9
20260901050314 60 237 0.0 4.0 0.00 0.09 0.00 96 1018.9
20260901045809 60 237 0.0 4.0 0.00 0.09 0.00 96 1019.0
20260901045307 60 237 0.0 4.0 0.00 0.09 0.00 95 1018.9
20260901044821 60 237 0.0 4.0 0.00 0.09 0.00 95 1018.9
20260901044304 60 272 0.0 4.0 0.00 0.09 0.00 95 1018.7
20260901043808 60 274 0.0 2.0 0.00 0.09 0.00 95 1018.8
20260901043307 60 290 0.0 0.0 0.00 0.09 0.00 95 1018.6
20260901042804 60 290 0.0 2.0 0.00 0.09 0.00 95 1018.5
20260901042306 60 301 0.0 2.0 0.00 0.09 0.00 95 1018.5
20260901041754 60 301 0.0 4.0 0.00 0.09 0.00 95 1018.5
20260901041250 60 301 0.0 4.0 0.00 0.09 0.00 95 1018.5
20260901040104 60 301 0.0 4.0 0.00 0.09 0.00 95 1018.5
20260901035601 60 301 0.0 4.0 0.00 0.09 0.00 95 1018.5
20260901035047 60 301 0.0 4.0 0.00 0.09 0.00 94 1018.4
20260901034534 60 301 0.0 4.0 0.00 0.09 0.00 94 1018.3
20260901034032 60 302 0.0 7.0 0.00 0.09 0.00 94 1018.4
20260901033531 60 304 0.0 7.0 0.00 0.09 0.00 94 1018.4
20260901032522 60 297 0.0 0.0 0.00 0.09 0.00 94 1018.3
20260901031518 60 297 0.0 0.0 0.00 0.09 0.00 94 1018.4
20260901031018 60 297 0.0 0.0 0.00 0.09 0.00 94 1018.3
20260901030515 60 297 0.0 0.0 0.00 0.09 0.00 94 1018.3
20260901030014 61 297 0.0 0.0 0.00 0.09 0.00 94 1018.3
20260901025506 61 297 0.0 0.0 0.00 0.09 0.00 94 1018.3
20260901024504 61 297 0.0 0.0 0.00 0.09 0.00 94 1018.2
20260901024007 61 297 0.0 0.0 0.00 0.09 0.00 94 1018.2
20260901023003 61 297 0.0 2.0 0.00 0.09 0.00 93 1018.2
20260901022004 61 297 0.0 7.0 0.00 0.09 0.00 93 1018.4
20260901021505 61 297 0.0 7.0 0.00 0.09 0.00 93 1018.3
20260901021005 61 286 0.0 4.0 0.00 0.09 0.00 93 1018.2
20260901020504 61 286 2.0 7.0 0.00 0.09 0.00 93 1018.3
20260901020006 62 284 2.0 7.0 0.00 0.09 0.00 93 1018.3
20260901015505 62 273 2.0 7.0 0.00 0.09 0.00 93 1018.3
20260901015004 61 295 2.0 11.0 0.00 0.09 0.00 93 1018.4
20260901014505 61 306 4.0 12.0 0.00 0.09 0.00 93 1018.3
20260901013006 61 305 2.0 7.0 0.00 0.09 0.00 93 1018.5
20260901012506 61 314 0.0 7.0 0.00 0.09 0.00 93 1018.4
20260901012007 61 316 2.0 7.0 0.00 0.09 0.00 93 1018.4
20260901011505 61 328 2.0 7.0 0.00 0.09 0.00 93 1018.3
20260901011004 61 298 2.0 4.0 0.00 0.09 0.00 93 1018.3
20260901010504 61 300 0.0 11.0 0.00 0.09 0.00 92 1018.2
20260901010004 61 295 0.0 11.0 0.00 0.09 0.00 92 1018.2
20260901005505 61 323 0.0 5.0 0.00 0.09 0.00 92 1018.3
20260901004955 61 315 0.0 5.0 0.00 0.09 0.00 92 1018.3
20260901004456 61 309 0.0 5.0 0.00 0.09 0.00 92 1018.1
20260901003956 61 294 0.0 4.0 0.00 0.09 0.00 92 1018.2
20260901003452 62 294 2.0 11.0 0.00 0.09 0.00 92 1018.2
20260901002949 62 292 2.0 11.0 0.00 0.09 0.00 92 1018.2
20260901002450 62 284 4.0 7.0 0.00 0.09 0.00 91 1018.1
20260901001944 62 281 2.0 7.0 0.00 0.09 0.00 91 1018.2
20260901001444 62 293 2.0 7.0 0.00 0.09 0.00 91 1018.0
20260901000436 62 303 2.0 5.0 0.00 0.10 0.00 91 1018.0
20260831235932 62 304 2.0 5.0 0.00 0.11 0.00 91 1018.1
20260831233933 62 300 4.0 11.0 0.00 0.11 0.00 90 1018.0
20260831232431 62 291 4.0 11.0 0.00 0.11 0.00 90 1018.0
20260831231931 62 314 4.0 12.0 0.00 0.11 0.00 90 1018.0
20260831231423 62 313 4.0 12.0 0.00 0.11 0.00 89 1017.9
20260831230920 62 298 2.0 7.0 0.00 0.11 0.00 89 1017.9
20260831230422 63 295 4.0 11.0 0.00 0.11 0.00 89 1018.0
20260831225410 63 298 2.0 9.0 0.00 0.11 0.00 89 1018.0
20260831224911 63 283 4.0 9.0 0.00 0.11 0.00 89 1018.0
20260831224408 63 241 4.0 9.0 0.00 0.11 0.00 88 1018.0
20260831223910 63 290 2.0 9.0 0.00 0.11 0.00 88 1018.0
20260831223409 63 287 2.0 11.0 0.00 0.11 0.00 88 1018.2
20260831222907 63 287 4.0 11.0 0.00 0.11 0.00 88 1018.1
20260831222405 63 324 4.0 11.0 0.00 0.11 0.00 88 1018.1
20260831221408 63 271 4.0 12.0 0.00 0.11 0.00 87 1018.0
20260831220908 63 299 2.0 7.0 0.00 0.11 0.00 87 1017.9
20260831215906 64 284 2.0 7.0 0.00 0.11 0.11 87 1018.0
20260831215401 64 185 4.0 11.0 0.00 0.11 0.11 87 1018.0
20260831214900 64 291 5.0 12.0 0.00 0.11 0.11 86 1017.9
20260831214350 64 297 4.0 12.0 0.00 0.11 0.11 86 1018.0
20260831213845 64 295 4.0 11.0 0.00 0.11 0.11 86 1017.9
20260831213339 64 291 4.0 11.0 0.00 0.11 0.11 85 1017.9
20260831212839 64 287 4.0 11.0 0.00 0.11 0.11 85 1017.9
20260831212340 65 296 4.0 9.0 0.00 0.11 0.11 85 1017.9
20260831211836 65 279 4.0 9.0 0.00 0.11 0.11 85 1017.9
20260831210835 65 299 4.0 14.0 0.00 0.11 0.11 85 1017.9
20260831210336 65 314 4.0 11.0 0.00 0.11 0.11 85 1017.9
20260831205833 65 282 4.0 11.0 0.00 0.11 0.11 85 1017.7
20260831205335 65 295 4.0 11.0 0.00 0.11 0.11 85 1017.7
20260831204831 65 291 4.0 11.0 0.00 0.11 0.11 84 1017.7
20260831204331 65 276 2.0 7.0 0.00 0.11 0.11 84 1017.7
20260831203834 65 305 2.0 7.0 0.00 0.11 0.11 84 1017.6
20260831203332 65 301 4.0 7.0 0.00 0.11 0.11 84 1017.6
20260831202831 65 287 4.0 7.0 0.00 0.11 0.11 83 1017.5
20260831202335 65 286 4.0 14.0 0.00 0.11 0.11 83 1017.5
20260831200835 65 287 4.0 11.0 0.00 0.11 0.11 83 1017.4
20260831200332 66 282 4.0 12.0 0.00 0.11 0.11 82 1017.4
20260831195835 66 299 4.0 12.0 0.00 0.11 0.11 82 1017.3
20260831195333 66 251 4.0 16.0 0.00 0.11 0.11 82 1017.3
20260831194334 66 131 4.0 12.0 0.00 0.11 0.11 81 1017.1
20260831193335 67 299 4.0 12.0 0.00 0.11 0.11 80 1016.8
20260831192833 67 253 4.0 14.0 0.00 0.11 0.11 79 1016.8
20260831192330 67 293 4.0 14.0 0.00 0.11 0.11 79 1016.7
20260831190837 67 284 5.0 16.0 0.00 0.11 0.11 77 1016.5
20260831190333 67 268 5.0 16.0 0.00 0.11 0.11 77 1016.5
20260831185834 67 297 4.0 14.0 0.00 0.11 0.11 77 1016.4
20260831185333 67 274 2.0 7.0 0.00 0.11 0.11 75 1016.2
20260831184833 67 299 4.0 11.0 0.00 0.11 0.11 75 1016.2
20260831184333 67 293 2.0 11.0 0.00 0.11 0.11 75 1016.1
20260831183331 67 285 4.0 14.0 0.00 0.11 0.11 74 1016.0
20260831182834 67 293 4.0 14.0 0.00 0.11 0.11 73 1015.9
20260831181833 68 262 5.0 12.0 0.00 0.11 0.11 73 1015.6
20260831181331 68 309 4.0 12.0 0.00 0.11 0.11 72 1015.5
20260831180834 68 257 4.0 11.0 0.00 0.11 0.11 72 1015.5
20260831175834 69 284 2.0 7.0 0.00 0.11 0.11 72 1015.3
20260831175334 69 287 2.0 7.0 0.00 0.11 0.11 71 1015.4
20260831174835 69 290 4.0 12.0 0.00 0.12 0.11 71 1015.2
20260831174332 69 289 4.0 12.0 0.00 0.12 0.11 71 1015.1
20260831173840 70 284 4.0 14.0 0.00 0.12 0.11 71 1015.2
20260831172832 70 287 5.0 14.0 0.00 0.12 0.11 70 1015.1
20260831172330 70 294 5.0 25.0 0.00 0.12 0.11 69 1015.0
20260831171332 71 291 5.0 16.0 0.00 0.12 0.11 68 1014.9
20260831170833 71 294 5.0 16.0 0.00 0.12 0.11 68 1014.8
20260831165834 71 295 4.0 12.0 0.00 0.12 0.11 68 1014.7
20260831164835 71 283 4.0 16.0 0.00 0.12 0.11 69 1014.6
20260831164332 70 290 4.0 11.0 0.00 0.12 0.11 70 1014.6
20260831163832 70 316 4.0 11.0 0.00 0.12 0.11 70 1014.5
20260831163331 70 53 4.0 11.0 0.00 0.12 0.11 70 1014.5
20260831162835 70 245 4.0 12.0 0.00 0.12 0.11 70 1014.4
20260831161333 71 220 7.0 18.0 0.00 0.12 0.11 74 1014.2
20260831160833 71 264 7.0 18.0 0.00 0.12 0.11 75 1014.2
20260831155831 70 284 5.0 14.0 0.00 0.12 0.11 80 1014.1
20260831155331 70 287 5.0 22.0 0.00 0.12 0.11 81 1014.0
20260831154830 69 299 5.0 22.0 0.00 0.12 0.11 82 1013.9
20260831154332 69 316 7.0 18.0 0.00 0.12 0.11 83 1014.1
20260831153830 68 305 7.0 20.0 0.00 0.12 0.11 83 1014.0
20260831152831 69 299 7.0 20.0 0.00 0.12 0.11 82 1013.9
20260831152331 69 312 5.0 18.0 0.00 0.12 0.11 83 1013.9
20260831151833 69 284 7.0 18.0 0.00 0.12 0.11 83 1013.7
20260831151332 68 247 7.0 16.0 0.00 0.12 0.11 82 1013.6
20260831150331 68 231 5.0 14.0 0.01 0.12 0.11 83 1013.5
20260831145330 67 314 4.0 16.0 0.01 0.12 0.11 87 1013.5
20260831144832 66 299 5.0 16.0 0.01 0.12 0.11 88 1013.4
20260831144332 66 292 5.0 14.0 0.01 0.12 0.11 87 1013.4
20260831143831 66 288 5.0 16.0 0.01 0.12 0.11 88 1013.3
20260831143334 66 319 7.0 18.0 0.01 0.12 0.11 87 1013.2
20260831142332 67 282 9.0 20.0 0.01 0.12 0.11 84 1013.2
20260831141331 68 267 7.0 20.0 0.01 0.12 0.10 80 1012.8
20260831140332 69 166 7.0 27.0 0.00 0.11 0.10 78 1012.7
20260831135330 70 310 7.0 25.0 0.00 0.11 0.10 77 1012.6
20260831134332 69 278 9.0 23.0 0.00 0.11 0.10 75 1012.5
20260831133831 69 274 11.0 23.0 0.00 0.11 0.10 75 1012.5
20260831133331 69 330 11.0 27.0 0.00 0.11 0.10 75 1012.4
20260831132832 70 326 11.0 27.0 0.00 0.11 0.10 74 1012.3
20260831132333 71 285 11.0 25.0 0.00 0.11 0.10 73 1012.1
20260831131330 70 249 11.0 25.0 0.00 0.11 0.10 74 1011.9
20260831130830 69 216 11.0 29.0 0.00 0.11 0.10 73 1012.1
20260831130332 70 13 11.0 29.0 0.00 0.11 0.10 73 1012.1
20260831125831 70 302 9.0 25.0 0.00 0.11 0.10 75 1012.0
20260831125330 69 287 11.0 25.0 0.00 0.11 0.10 75 1011.9
20260831124830 68 338 11.0 27.0 0.00 0.11 0.10 75 1012.0
20260831123831 69 316 9.0 27.0 0.00 0.11 0.10 77 1011.9
20260831123331 69 35 9.0 22.0 0.00 0.11 0.10 79 1011.9
20260831122831 69 229 9.0 22.0 0.00 0.11 0.10 82 1011.9
20260831122332 68 296 7.0 20.0 0.00 0.11 0.10 82 1011.7
20260831121831 68 7 9.0 20.0 0.00 0.11 0.10 83 1011.8
20260831121330 67 167 9.0 22.0 0.00 0.11 0.10 83 1011.7
20260831120830 67 330 9.0 22.0 0.01 0.11 0.10 85 1011.6
20260831120330 66 251 9.0 22.0 0.02 0.11 0.10 85 1011.5
20260831115332 66 315 7.0 20.0 0.03 0.11 0.10 86 1011.4
20260831114829 66 257 7.0 18.0 0.03 0.11 0.10 88 1011.5
20260831113830 65 193 5.0 16.0 0.03 0.11 0.10 90 1011.4
20260831113331 65 334 5.0 16.0 0.03 0.11 0.10 90 1011.4
20260831112330 64 147 5.0 16.0 0.03 0.11 0.10 92 1011.4
20260831111832 64 241 4.0 16.0 0.03 0.11 0.10 91 1011.4
20260831111328 63 349 5.0 25.0 0.03 0.11 0.10 90 1011.2
20260831110829 64 301 7.0 25.0 0.02 0.10 0.09 89 1011.5
20260831110330 64 300 7.0 23.0 0.02 0.09 0.09 88 1011.3
20260831105829 64 290 7.0 22.0 0.01 0.09 0.07 87 1011.5
20260831105327 64 327 7.0 22.0 0.00 0.08 0.07 87 1011.3
20260831104829 64 141 9.0 25.0 0.02 0.08 0.07 86 1011.3
20260831104327 64 327 9.0 25.0 0.06 0.08 0.07 86 1011.3